Weather Roundup
Issued by NWS

Home | Current Version | Previous Version | Graphics & Text | Print | Product List | Glossary Off
Versions: 1 2 3 4 5 6 7 8 9 10 11 12 13 14 15 16 17 18 19 20 21 22 23 24 25 26 27 28 29 30 31 32 33 34 35 36 37 38 39 40 41 42 43 44 45 46 47 48 49 50

000
NZUS93 KARX 041059
HRRWXR

CURRENT HOURLY OBSERVATIONS ACROSS
MUCH OF THE UPPER MISSISSIPPI VALLEY
NATIONAL WEATHER SERVICE LA CROSSE WI
600 AM CDT MON MAY 04 2015


...SOUTHEAST MINNESOTA...


CITY           SKY/WX    TMP DP  RH WIND       PRES   REMARKS
ROCHESTER      MOCLDY    53  43  68 N17       30.04R
ROCHESTER/MAYO FAIR      54  44  71 NW6       30.04R
WINONA         PTCLDY    54  52  94 NW3       30.02R
AUSTIN         CLOUDY    52  45  76 N6        30.04R
ALBERT LEA     CLOUDY    54  45  71 N9        30.04R
DODGE CENTER   MOCLDY    52  45  76 N10       30.04R
PRESTON        MOCLDY    51  49  93 CALM      30.04R
OWATONNA       MOCLDY    54  39  58 N9        30.06R
FARIBAULT      PTCLDY    52  39  62 N8        30.07R
$$

...ELSEWHERE IN MINNESOTA...


CITY           SKY/WX    TMP DP  RH WIND       PRES   REMARKS
MINNEAPOLIS    FAIR      51  35  54 N7        30.08R
INTNL FALLS    CLEAR     34  32  92 NW3       30.11R
DULUTH         CLEAR     44  34  67 NW7       30.07R
RED WING       PTCLDY    54  37  54 NE7       30.05R
REDWOOD FALLS  CLEAR     48  30  49 N7        30.10R
MANKATO          N/A    N/A N/A N/A MISG        N/A
WORTHINGTON    PTCLDY    45  27  49 N12       30.09R
FAIRMONT       MOCLDY    50  30  46 N13       30.05R
$$

...SOUTHWEST WISCONSIN...


CITY           SKY/WX    TMP DP  RH WIND       PRES   REMARKS
LA CROSSE      MOCLDY    58  54  86 N7        30.01R
PRAIRIE DU CHI CLOUDY    57  56  96 N5        29.98R
BOSCOBEL       CLOUDY    58  56  93 CALM      30.00R
LONE ROCK      NOT AVBL
PLATTEVILLE    CLOUDY    56  55  97 NW5       29.97R
FORT MC COY    CLOUDY    56  55  96 CALM      30.00R
CAMP DOUGLAS   MOCLDY    57  57 100 NW6       29.98R
VIROQUA        CLOUDY    57  57 100 W3        30.01R
WIS DELLS      NOT AVBL
$$

...ELSEWHERE IN WISCONSIN...


CITY           SKY/WX    TMP DP  RH WIND       PRES   REMARKS
MILWAUKEE      CLOUDY    61  53  75 W7        29.92R
MADISON        CLOUDY    57  55  93 NW3       29.98R
GREEN BAY      CLOUDY    59  57  93 NW8       29.95R FOG
EAU CLAIRE     NOT AVBL
BLACK RVR FLS  FOG       51  51 100 CALM      30.00R VSB 1/4
MEDFORD        CLEAR     49  42  76 N10       30.00R
WAUSAU         CLEAR     52  48  86 NW7       29.98R
WIS RAPIDS     PTCLDY    53  51  93 N7        30.00R FOG
MARSHFIELD     PTCLDY    52  50  93 N6        30.00R
RICE LAKE      CLEAR     48  35  60 N5        30.06R
$$

...NORTHEAST IOWA...


CITY           SKY/WX    TMP DP  RH WIND       PRES   REMARKS
DECORAH        CLOUDY    57  57 100 N6        29.99R
MASON CITY     CLOUDY    54  50  86 N10       30.03R
CHARLES CITY   CLOUDY    57  57 100 NE7       30.00R
OELWEIN        CLOUDY    57  57 100 NW7       29.98R
$$

...ELSEWHERE IN IOWA...


CITY           SKY/WX    TMP DP  RH WIND       PRES   REMARKS
DES MOINES     CLOUDY    62  55  77 N5        29.96R
IOWA CITY      CLOUDY    60  58  92 SE6       30.00R
FORT DODGE     CLOUDY    55  48  76 N5        30.06R
$$

...NORTHERN ILLINOIS...


CITY           SKY/WX    TMP DP  RH WIND       PRES   REMARKS
CHICAGO-OHARE  CLOUDY    60  54  80 W6        29.94R
CHICAGO-MIDWAY CLOUDY    65  54  67 S15G21    29.93R
MOLINE         LGT RAIN  60  57  89 S6        30.00R
ROCKFORD       CLOUDY    60  55  83 SW3       29.98R
PEORIA         TSTM      62  58  86 N5        30.04R FOG
$$

NOTE: "FAIR" INDICATES FEW OR NO CLOUDS BELOW 12,000 FEET WITH NO
SIGNIFICANT WEATHER AND/OR OBSTRUCTIONS TO VISIBILITY. WIND
SPEEDS ARE IN MILES-PER-HOUR.



USA.gov is the U.S. government's official web portal to all federal, state and local government web resources and services.